SCP
0 0 1 1 2 1 1 1 0 0 0 0 2 3 3 2 1 1 1 0 0 0 0 0 0 1 1 1 1 1 1 1 1 1 1 1 2 2
0 0 0 1 1 2 2 1 1 0 0 0 1 2 3 2 1 1 1 0 0 0 0 0 0 0 1 1 1 0 0 0 0 1 1 1 1 1
0 0 0 1 1 2 2 1 1 0 0 0 1 2 2 2 1 1 1 1 0 0 0 0 0 0 0 0 0 0 0 0 0 0 1 1 1 1
0 0 0 0 1 2 2 1 1 0 0 0 1 1 2 1 1 1 1 0 0 0 0 0 0 0 0 0 0 0 0 0 0 0 0 1 1 1
0 0 0 0 0 1 1 1 1 1 0 0 0 1 1 1 1 0 0 0 0 0 0 0 0 0 0 0 0 0 0 0 0 0 0 0 1 1
0 0 0 0 0 0 1 1 1 1 1 0 0 0 0 0 0 0 0 0 0 0 0 0 0 0 0 0 0 0 0 0 0 0 0 0 0 0
0 0 0 0 0 0 0 1 1 1 1 0 0 0 0 0 0 0 0 0 0 0 0 0 0 0 0 0 0 0 0 0 0 0 0 0 0 0
0 0 0 0 0 0 0 0 1 1 1 1 0 0 0 0 0 0 0 0 0 0 0 0 0 0 0 0 0 0 0 0 0 0 0 0 0 0
0 0 0 0 0 0 0 0 0 1 1 1 0 0 0 0 0 0 0 0 0 0 0 0 0 0 0 0 0 0 0 0 0 0 0 0 0 0
0 0 0 0 0 0 0 0 0 0 0 1 0 0 0 0 0 0 0 0 0 0 0 0 0 0 0 0 0 0 0 0 0 0 0 0 0 0
0 0 0 0 0 0 0 0 0 0 0 0 0 0 0 0 0 0 0 0 0 0 0 0 0 0 0 0 0 0 0 0 0 0 0 0 0 0
0 0 0 0 0 0 0 0 0 0 0 0 0 0 0 0 0 0 0 0 0 0 0 0 0 0 0 0 0 0 0 0 0 0 0 0 0 0
0 0 0 0 0 0 0 0 0 0 0 0 0 0 0 0 0 0 0 0 0 0 0 0 0 0 0 0 0 0 0 0 0 0 0 0 0 0
0 0 0 0 0 0 0 0 0 0 0 0 0 0 0 0 0 0 0 0 0 0 0 0 0 0 0 0 0 0 0 0 0 0 0 0 0 0
0 0 0 0 0 0 0 0 0 0 0 0 0 0 0 0 0 0 0 0 0 0 0 0 0 0 0 0 0 0 0 0 0 0 0 0 0 0
0 0 0 0 0 0 0 0 0 0 0 0 0 0 0 0 0 0 0 0 0 0 0 0 0 0 0 0 0 0 0 0 0 0 0 0 0 0
0 0 0 0 0 0 0 0 0 0 0 0 0 0 0 0 0 0 0 0 0 0 0 0 0 0 0 0 0 0 0 0 0 0 0 0 0 0
0 0 0 0 0 0 0 0 0 0 0 0 0 0 0 0 0 0 0 0 0 0 0 0 0 0 0 0 0 0 0 0 0 0 0 0 0 0
0 0 0 0 0 0 0 0 0 0 0 0 0 0 0 0 0 0 0 0 0 0 0 0 0 0 0 0 0 0 0 0 0 0 0 0 0 0
0 0 0 0 0 0 0 0 0 0 0 0 0 0 0 0 0 0 0 0 0 0 0 0 0 0 0 0 0 0 0 0 0 0 0 0 0 0
0 0 0 0 0 0 0 0 0 0 0 0 0 0 0 0 0 0 0 0 0 0 0 0 0 0 0 0 0 0 0 0 0 0 0 0 0 0
0 0 0 0 0 0 0 0 0 0 0 0 0 0 0 0 0 0 0 0 0 0 0 0 0 0 0 0 0 0 0 0 0 0 0 0 0 0
0 0 0 0 0 0 0 0 0 0 0 0 0 0 0 0 0 0 0 0 0 0 0 0 0 0 0 0 0 0 0 0 0 0 0 0 0 0
Wind_Speed
3 4 4 3 3 4 4 4 3 4 5 3 3 3 3 3 4 4 5 7 8 8 8 8 8 8 8 9 9 9 9 9 10 11 12 13 13 14
2 2 3 3 3 3 3 3 4 4 4 3 3 3 4 4 4 4 5 7 8 8 8 8 8 8 8 8 8 8 8 9 9 11 12 12 13 13
3 2 3 3 2 2 2 2 3 3 5 4 3 3 3 4 4 3 4 4 4 8 8 8 8 8 8 8 8 8 8 9 9 9 10 10 11 11
3 3 3 3 3 3 2 2 3 3 4 5 3 2 3 4 4 4 3 3 3 5 7 7 7 8 8 8 8 8 8 9 9 9 9 9 10 10
3 3 4 3 3 3 2 3 3 2 3 3 3 2 2 2 2 3 3 3 3 3 5 6 7 7 8 8 8 8 8 9 9 8 9 9 9 9
3 3 3 3 4 3 3 3 2 3 2 2 3 2 2 2 1 2 2 2 3 2 2 3 4 5 6 8 9 9 9 9 9 9 9 9 9 9
3 3 3 3 3 3 2 2 2 2 2 2 2 2 2 1 1 1 2 2 3 2 2 2 2 2 3 5 7 8 9 9 9 9 9 9 9 9
3 3 3 3 3 3 4 4 3 3 3 2 2 3 4 2 1 1 1 1 2 1 1 2 1 2 2 3 4 7 8 9 9 9 9 9 9 9
2 2 2 3 3 3 4 4 3 3 4 3 3 4 3 3 2 1 2 2 2 2 1 2 2 3 3 3 5 6 7 7 8 8 9 9 9 9
2 2 2 3 3 3 3 4 4 3 2 2 3 4 4 4 3 2 2 2 2 2 2 2 2 3 3 3 4 6 7 7 7 7 8 9 9 8
2 2 2 3 4 4 3 4 5 4 3 2 2 3 4 4 3 1 1 2 2 2 2 2 2 2 2 3 3 6 7 7 7 8 8 8 8 7
2 2 3 3 4 4 2 2 4 5 4 4 3 2 2 2 3 4 3 3 2 2 2 3 2 1 2 2 2 2 3 5 7 8 9 9 8 5
2 2 3 4 4 4 3 2 4 4 3 3 3 3 2 2 2 2 3 4 3 3 2 3 2 2 2 2 2 2 3 3 3 4 7 9 9 7
2 2 3 5 5 4 3 3 4 2 1 2 2 2 2 3 2 2 2 3 4 5 4 3 3 3 2 3 3 2 2 3 3 3 3 5 7 9
2 3 4 5 4 3 4 4 3 1 1 2 2 3 3 3 3 2 2 2 3 4 4 4 4 3 3 4 4 3 3 3 3 3 3 4 4 4
2 3 4 4 3 3 3 3 2 1 1 1 2 2 2 2 3 2 2 2 2 2 2 3 4 4 4 5 4 4 4 3 2 3 3 3 4 4
2 2 2 3 4 3 3 3 3 2 2 2 2 2 2 3 3 3 2 2 2 3 3 3 2 3 4 4 4 5 4 4 4 3 3 4 4 4
1 1 2 2 3 3 3 3 3 3 2 2 2 2 2 3 3 3 2 2 3 3 3 3 3 2 1 2 4 5 4 4 3 3 3 4 4 3
1 1 2 2 2 3 3 3 3 3 3 2 2 2 2 2 2 3 3 3 3 3 4 3 2 2 3 4 2 3 4 3 3 3 3 3 4 3
0 1 2 2 2 2 2 3 3 3 3 3 3 3 2 2 3 3 3 3 3 4 4 3 2 3 3 4 3 3 3 3 3 3 3 3 3 3
1 2 2 2 2 2 2 2 3 3 3 3 3 3 3 3 3 3 3 4 3 3 4 4 4 5 3 2 2 3 2 2 3 3 3 3 3 2
2 2 2 2 1 2 2 2 3 3 3 3 3 3 3 3 3 4 4 3 3 3 4 4 4 3 2 2 3 4 4 3 1 2 1 1 2 2
2 2 2 2 2 2 2 2 3 3 3 3 3 3 3 3 3 3 3 3 3 4 4 4 4 3 3 3 3 3 4 4 3 2 1 2 1 2
Wind_Direction
259 255 256 258 252 242 229 215 224 265 276 269 265 254 253 256 249 245 243 239 239 239 242 240 238 237 237 238 233 229 227 226 228 229 228 226 226 227
274 277 279 274 269 258 238 228 222 234 262 263 261 272 272 270 263 253 248 244 239 239 240 239 237 235 232 233 231 225 222 223 227 229 227 225 225 225
302 292 292 295 283 273 256 241 234 226 247 268 257 269 261 263 275 266 258 250 244 241 240 237 236 233 229 228 227 224 221 221 221 222 223 222 221 220
303 302 301 302 293 279 266 260 252 241 235 259 271 273 262 260 265 264 267 260 251 245 241 237 234 232 226 225 226 226 224 222 220 220 220 217 217 219
288 284 284 290 291 290 277 270 266 268 250 248 271 272 273 270 278 276 269 268 266 252 240 238 235 234 229 227 226 227 226 223 219 217 219 218 219 222
292 283 277 271 271 281 285 279 275 276 274 263 271 277 276 276 263 274 288 284 281 273 259 253 242 239 236 232 228 225 224 224 221 219 219 221 220 222
307 302 293 286 277 271 278 278 265 266 269 267 278 286 288 285 272 267 270 292 288 262 267 265 255 248 241 238 235 226 221 222 221 219 220 223 225 226
296 306 312 317 323 312 303 289 261 242 248 251 263 267 275 271 265 256 268 289 294 283 264 285 270 260 251 238 232 225 221 221 222 221 221 224 227 229
287 307 325 337 341 345 338 331 317 277 242 232 246 255 258 250 237 267 263 252 261 277 268 282 276 270 262 250 235 229 224 221 222 222 222 224 225 225
310 313 316 325 334 340 340 340 333 326 291 241 239 255 260 259 238 239 252 265 270 262 228 253 267 265 272 257 239 228 224 222 222 221 222 224 225 224
334 343 331 322 328 345 347 336 333 330 330 301 262 270 272 268 250 219 231 231 271 272 211 226 250 259 262 260 247 236 233 230 230 227 225 224 225 224
340 344 340 328 331 344 340 328 324 319 330 339 339 327 301 280 241 221 223 226 241 256 211 207 239 247 269 252 258 245 235 235 233 232 228 225 216 215
326 327 323 328 334 334 321 295 282 293 313 322 325 329 329 314 295 251 228 222 228 244 222 200 227 224 245 273 271 252 239 241 235 235 230 227 217 208
295 304 309 323 331 328 318 306 302 302 314 329 334 329 324 316 311 296 269 247 243 248 243 215 225 226 238 258 266 258 247 242 241 249 244 231 225 219
291 308 320 330 333 333 335 335 336 348 345 345 335 320 307 304 310 312 313 296 276 261 253 235 232 237 235 249 263 266 269 258 236 242 245 239 237 220
328 333 338 342 342 330 334 350 359 347 333 333 330 321 322 331 334 332 332 336 329 319 290 256 239 232 239 245 250 262 260 260 251 240 247 245 235 229
335 350 1 354 351 348 347 350 353 356 351 340 334 334 336 339 334 337 336 337 325 319 322 327 304 265 247 249 257 260 261 259 255 250 242 254 249 236
52 5 341 339 338 337 339 341 343 342 336 335 333 337 337 331 328 331 330 322 313 309 313 320 326 316 276 248 235 262 269 270 273 255 235 248 258 246
91 332 324 329 335 337 339 339 336 334 332 338 335 335 332 325 324 327 330 326 321 317 314 313 313 308 300 301 285 228 260 279 279 267 249 245 259 265
25 318 323 329 330 335 340 340 336 339 347 344 341 340 340 333 329 328 328 326 320 317 319 322 317 303 288 288 293 296 264 267 271 271 268 255 257 261
344 333 327 327 331 337 338 339 340 344 348 345 345 344 339 331 325 321 318 316 310 312 318 319 313 301 289 276 279 294 311 271 255 267 272 264 264 264
339 332 335 333 332 334 335 343 348 349 349 346 340 335 329 320 314 316 318 318 316 312 312 317 328 332 323 305 303 308 317 326 290 246 264 280 265 264
331 331 332 330 328 327 334 344 342 339 341 338 335 333 330 325 319 316 317 316 316 320 323 330 340 343 336 319 311 312 319 328 333 344 10 352 299 298